When you browse on this site, cookies collect data to enhance your experience and personalize the content and advertising you see.
Visit our Privacy Policy to learn more. By continuing to use the site, you agree to this use of cookies and data.
  • Em Portugal
  • Lista de países
  • Para 7 dias
  • Temperatura da água
  • Mapa do tempo
  • Widgets de tempo
  • user-avatar
    Iniciar Sessão

    Previsão horária em Silkhet

    Hoje, 23 Outubro, Quarta-feira

    Tempo Temperatura Precipitação Vento Pressão Humidade
    00:00 +26°C° 0 mm 1 m/s 756 mmHg 85%
    01:00 +25°C° 0 mm 1 m/s 756 mmHg 87%
    02:00 +25°C° 0 mm 1 m/s 755 mmHg 89%
    03:00 +25°C° 0 mm 1 m/s 755 mmHg 91%
    04:00 +25°C° 0 mm 1 m/s 755 mmHg 93%
    05:00 +24°C° 0 mm 1 m/s 756 mmHg 94%
    06:00 +24°C° 0 mm 1 m/s 756 mmHg 98%
    07:00 +26°C° 0 mm 1 m/s 756 mmHg 92%
    08:00 +27°C° 0 mm 1 m/s 756 mmHg 86%
    09:00 +29°C° 0 mm 2 m/s 757 mmHg 80%
    10:00 +30°C° 0 mm 1 m/s 756 mmHg 73%
    11:00 +32°C° 0 mm 1 m/s 756 mmHg 65%
    12:00 +31°C° 0 mm 0 m/s 756 mmHg 54%
    13:00 +33°C° 0 mm 1 m/s 755 mmHg 52%
    14:00 +33°C° 0 mm 1 m/s 754 mmHg 51%
    15:00 +33°C° 0 mm 1 m/s 754 mmHg 49%
    16:00 +31°C° 0 mm 1 m/s 754 mmHg 55%
    17:00 +30°C° 0 mm 1 m/s 755 mmHg 60%
    18:00 +28°C° 0 mm 1 m/s 755 mmHg 65%
    19:00 +28°C° 0 mm 1 m/s 755 mmHg 66%
    20:00 +27°C° 0 mm 1 m/s 756 mmHg 68%
    21:00 +27°C° 0 mm 1 m/s 756 mmHg 69%
    22:00 +27°C° 0 mm 1 m/s 756 mmHg 69%
    23:00 +27°C° 0 mm 1 m/s 756 mmHg 69%

    Amanhã, 24 Outubro, Quinta-feira

    Tempo Temperatura Precipitação Vento Pressão Humidade
    00:00 +25°C° 0 mm 0 m/s 756 mmHg 69%
    01:00 +25°C° 0 mm 0 m/s 756 mmHg 69%
    02:00 +26°C° 0 mm 1 m/s 756 mmHg 70%
    03:00 +26°C° 0 mm 1 m/s 756 mmHg 70%
    04:00 +26°C° 0.2 mm 1 m/s 756 mmHg 72%
    05:00 +25°C° 0.2 mm 2 m/s 757 mmHg 73%
    06:00 +24°C° 0.2 mm 3 m/s 757 mmHg 75%
    07:00 +24°C° 0.5 mm 3 m/s 758 mmHg 80%
    08:00 +22°C° 0.5 mm 3 m/s 758 mmHg 85%
    09:00 +21°C° 0.5 mm 3 m/s 759 mmHg 91%
    10:00 +21°C° 1 mm 3 m/s 759 mmHg 92%
    11:00 +21°C° 1 mm 2 m/s 758 mmHg 93%
    12:00 +21°C° 1 mm 2 m/s 758 mmHg 94%
    13:00 +23°C° 0.5 mm 2 m/s 758 mmHg 94%
    14:00 +23°C° 0.5 mm 2 m/s 757 mmHg 94%
    15:00 +23°C° 0.5 mm 2 m/s 756 mmHg 94%
    16:00 +23°C° 0 mm 2 m/s 757 mmHg 94%
    17:00 +23°C° 0 mm 2 m/s 757 mmHg 94%
    18:00 +23°C° 0 mm 2 m/s 757 mmHg 95%
    19:00 +23°C° 0 mm 1 m/s 757 mmHg 95%
    20:00 +23°C° 0 mm 1 m/s 758 mmHg 95%
    21:00 +23°C° 0 mm 1 m/s 758 mmHg 94%
    22:00 +23°C° 0 mm 1 m/s 758 mmHg 95%
    23:00 +23°C° 0 mm 1 m/s 758 mmHg 95%

    Depois de amanhã, 25 Outubro, Sexta-feira

    Tempo Temperatura Precipitação Vento Pressão Humidade
    00:00 +23°C° 0 mm 2 m/s 758 mmHg 95%
    01:00 +23°C° 0.3 mm 1 m/s 757 mmHg 95%
    02:00 +23°C° 0.3 mm 1 m/s 757 mmHg 95%
    03:00 +22°C° 0.3 mm 1 m/s 757 mmHg 96%
    04:00 +22°C° 0.3 mm 1 m/s 757 mmHg 96%
    05:00 +21°C° 0.3 mm 2 m/s 757 mmHg 96%
    06:00 +21°C° 0.3 mm 2 m/s 757 mmHg 96%
    07:00 +21°C° 0.6 mm 2 m/s 758 mmHg 96%
    08:00 +23°C° 0.6 mm 2 m/s 758 mmHg 96%
    09:00 +23°C° 0.6 mm 2 m/s 759 mmHg 96%
    10:00 +23°C° 0.7 mm 2 m/s 758 mmHg 95%
    11:00 +23°C° 0.7 mm 2 m/s 758 mmHg 95%
    12:00 +22°C° 0.7 mm 3 m/s 758 mmHg 95%
    13:00 +22°C° 0.3 mm 3 m/s 757 mmHg 94%
    14:00 +22°C° 0.3 mm 3 m/s 757 mmHg 93%
    15:00 +24°C° 0.3 mm 3 m/s 756 mmHg 92%
    16:00 +23°C° 0 mm 2 m/s 757 mmHg 92%
    17:00 +23°C° 0 mm 2 m/s 757 mmHg 93%
    18:00 +23°C° 0 mm 2 m/s 757 mmHg 94%
    19:00 +23°C° 0 mm 1 m/s 758 mmHg 94%
    20:00 +22°C° 0 mm 1 m/s 758 mmHg 93%
    21:00 +22°C° 0 mm 1 m/s 758 mmHg 93%
    22:00 +22°C° 0.1 mm 1 m/s 758 mmHg 93%
    23:00 +22°C° 0.1 mm 1 m/s 758 mmHg 93%

    26 Outubro, Sábado

    Tempo Temperatura Precipitação Vento Pressão Humidade
    00:00 +21°C° 0.1 mm 2 m/s 758 mmHg 93%
    01:00 +21°C° 0.3 mm 2 m/s 758 mmHg 93%
    02:00 +21°C° 0.3 mm 2 m/s 758 mmHg 93%
    03:00 +21°C° 0.3 mm 2 m/s 758 mmHg 93%
    04:00 +20°C° 3.6 mm 2 m/s 758 mmHg 95%
    05:00 +20°C° 3.6 mm 2 m/s 758 mmHg 96%
    06:00 +21°C° 3.6 mm 1 m/s 758 mmHg 98%
    07:00 +20°C° 4.8 mm 2 m/s 759 mmHg 98%
    08:00 +20°C° 4.8 mm 2 m/s 759 mmHg 98%
    09:00 +20°C° 4.8 mm 2 m/s 760 mmHg 98%
    10:00 +21°C° 1.4 mm 2 m/s 760 mmHg 97%
    11:00 +21°C° 1.4 mm 2 m/s 759 mmHg 97%
    12:00 +21°C° 1.4 mm 2 m/s 759 mmHg 96%
    13:00 +23°C° 0.1 mm 2 m/s 758 mmHg 96%
    14:00 +23°C° 0.1 mm 2 m/s 758 mmHg 95%
    15:00 +23°C° 0.1 mm 2 m/s 757 mmHg 95%
    16:00 +23°C° 0 mm 2 m/s 757 mmHg 95%
    17:00 +23°C° 0 mm 2 m/s 757 mmHg 96%
    18:00 +23°C° 0 mm 1 m/s 758 mmHg 96%
    19:00 +23°C° 0 mm 1 m/s 758 mmHg 97%
    20:00 +23°C° 0 mm 1 m/s 758 mmHg 97%
    21:00 +22°C° 0 mm 1 m/s 758 mmHg 97%
    22:00 +22°C° 0 mm 1 m/s 758 mmHg 97%
    23:00 +22°C° 0 mm 1 m/s 758 mmHg 97%

    27 Outubro, Domingo

    Tempo Temperatura Precipitação Vento Pressão Humidade
    00:00 +22°C° 0 mm 1 m/s 758 mmHg 96%
    01:00 +22°C° 0 mm 1 m/s 758 mmHg 96%
    02:00 +22°C° 0 mm 1 m/s 758 mmHg 96%
    03:00 +22°C° 0 mm 1 m/s 757 mmHg 95%
    04:00 +22°C° 0.3 mm 1 m/s 758 mmHg 96%
    05:00 +22°C° 0.3 mm 1 m/s 758 mmHg 96%
    06:00 +22°C° 0.3 mm 1 m/s 758 mmHg 96%
    07:00 +23°C° 0.5 mm 1 m/s 758 mmHg 95%
    08:00 +23°C° 0.5 mm 1 m/s 759 mmHg 94%
    09:00 +24°C° 0.5 mm 1 m/s 760 mmHg 93%
    10:00 +24°C° 0.1 mm 2 m/s 759 mmHg 92%
    11:00 +24°C° 0.1 mm 2 m/s 759 mmHg 91%
    12:00 +25°C° 0.1 mm 2 m/s 758 mmHg 91%
    13:00 +25°C° 0 mm 2 m/s 758 mmHg 88%
    14:00 +26°C° 0 mm 1 m/s 757 mmHg 86%
    15:00 +26°C° 0 mm 1 m/s 757 mmHg 83%
    16:00 +25°C° 0 mm 1 m/s 757 mmHg 86%
    17:00 +25°C° 0 mm 1 m/s 757 mmHg 89%
    18:00 +22°C° 0 mm 0 m/s 757 mmHg 91%
    19:00 +22°C° 0 mm 0 m/s 757 mmHg 92%
    20:00 +21°C° 0 mm 0 m/s 757 mmHg 93%
    21:00 +21°C° 0 mm 0 m/s 758 mmHg 93%
    22:00 +21°C° 0 mm 0 m/s 758 mmHg 94%
    23:00 +21°C° 0 mm 0 m/s 757 mmHg 94%

    28 Outubro, Segunda-feira

    Tempo Temperatura Precipitação Vento Pressão Humidade
    00:00 +21°C° 0 mm 0 m/s 757 mmHg 95%
    01:00 +21°C° 0 mm 0 m/s 757 mmHg 95%
    02:00 +21°C° 0 mm 0 m/s 757 mmHg 95%
    03:00 +22°C° 0 mm 1 m/s 757 mmHg 96%
    04:00 +22°C° 0 mm 1 m/s 757 mmHg 96%
    05:00 +22°C° 0 mm 1 m/s 758 mmHg 96%
    06:00 +22°C° 0 mm 1 m/s 758 mmHg 96%
    07:00 +24°C° 0 mm 1 m/s 758 mmHg 91%
    08:00 +25°C° 0 mm 1 m/s 759 mmHg 85%
    09:00 +27°C° 0 mm 1 m/s 759 mmHg 80%
    10:00 +28°C° 0 mm 1 m/s 759 mmHg 75%
    11:00 +29°C° 0 mm 1 m/s 758 mmHg 71%
    12:00 +30°C° 0 mm 1 m/s 758 mmHg 66%
    13:00 +30°C° 0 mm 1 m/s 757 mmHg 65%
    14:00 +31°C° 0 mm 1 m/s 756 mmHg 64%
    15:00 +31°C° 0 mm 1 m/s 756 mmHg 64%
    16:00 +29°C° 0 mm 1 m/s 756 mmHg 68%
    17:00 +28°C° 0 mm 1 m/s 756 mmHg 73%
    18:00 +27°C° 0 mm 1 m/s 756 mmHg 78%
    19:00 +26°C° 0 mm 1 m/s 757 mmHg 79%
    20:00 +26°C° 0 mm 1 m/s 757 mmHg 81%
    21:00 +25°C° 0 mm 1 m/s 758 mmHg 82%
    22:00 +25°C° 0 mm 1 m/s 758 mmHg 83%
    23:00 +25°C° 0 mm 1 m/s 758 mmHg 83%

    29 Outubro, Terça-feira

    Tempo Temperatura Precipitação Vento Pressão Humidade
    00:00 +24°C° 0 mm 1 m/s 757 mmHg 84%
    01:00 +22°C° 0 mm 0 m/s 757 mmHg 85%
    02:00 +22°C° 0 mm 0 m/s 757 mmHg 85%
    03:00 +21°C° 0 mm 0 m/s 757 mmHg 86%
    04:00 +21°C° 0 mm 0 m/s 757 mmHg 87%
    05:00 +21°C° 0 mm 0 m/s 758 mmHg 87%
    06:00 +21°C° 0 mm 0 m/s 758 mmHg 88%
    07:00 +25°C° 0 mm 1 m/s 758 mmHg 84%
    08:00 +26°C° 0 mm 1 m/s 758 mmHg 79%
    09:00 +28°C° 0 mm 1 m/s 759 mmHg 75%
    10:00 +29°C° 0 mm 1 m/s 758 mmHg 73%
    11:00 +30°C° 0 mm 1 m/s 758 mmHg 71%
    12:00 +31°C° 0 mm 1 m/s 757 mmHg 68%
    13:00 +31°C° 0 mm 1 m/s 757 mmHg 66%
    14:00 +32°C° 0 mm 1 m/s 756 mmHg 64%
    15:00 +32°C° 0 mm 1 m/s 756 mmHg 61%
    16:00 +30°C° 0 mm 1 m/s 756 mmHg 67%
    17:00 +29°C° 0 mm 1 m/s 756 mmHg 72%
    18:00 +27°C° 0 mm 1 m/s 756 mmHg 77%
    19:00 +27°C° 0 mm 1 m/s 756 mmHg 79%
    20:00 +26°C° 0 mm 1 m/s 757 mmHg 81%
    21:00 +26°C° 0 mm 1 m/s 757 mmHg 83%
    22:00 +25°C° 0 mm 1 m/s 757 mmHg 84%
    23:00 +23°C° 0 mm 0 m/s 757 mmHg 85%
    Mostrar mais